Vertical_Velocity
-3 -3 -1 0 -5 0 -4 -7 -1 -2 -1 -2 3 -1 -3 -1 4 -8 4 2 5 -4 3 -1 -5 1 -4 -12 1 -2 18 -1 4 1 -2 -1 -0 -1 -2 0 -0 1 1 0 0 3 1 -3 -3
-3 -1 -0 -1 -3 -1 -3 -7 -2 0 -1 -3 -1 -4 -4 -1 2 -0 -6 6 4 1 16 -2 -9 -5 -6 -3 8 -1 2 -0 -2 -3 -1 1 2 3 1 0 -2 -3 -3 -1 2 4 -5 -5 -1
-2 0 0 -2 -2 -0 -3 -3 -0 -0 -4 -2 -1 -7 -7 3 1 1 2 -7 -10 -5 -6 1 2 -1 -5 -6 16 4 7 12 -2 2 2 2 -0 -4 -1 -2 -2 -2 -5 -4 6 3 -4 -4 -5
0 0 -3 -4 -3 2 -1 1 -2 -4 2 -2 -0 -5 -7 -12 -2 3 9 2 0 -3 2 -10 -1 -5 -4 8 98 -1 1 0 -2 1 1 -1 -0 -1 -2 1 -3 -5 -6 3 7 2 -2 1 -6
1 -1 -2 -2 -3 3 -0 2 -0 -2 -3 -4 1 -3 -2 -2 -3 -2 -1 -10 4 5 0 7 -0 1 -5 3 92 -0 -9 13 4 1 1 -2 -3 1 -2 -4 -2 -3 -1 3 1 3 -1 1 -3
2 1 -3 -1 2 0 -1 -1 -2 -0 2 -1 1 -0 -3 -4 -5 2 -6 -2 0 -4 8 10 -1 -0 -5 -1 28 4 4 6 -1 -2 -1 3 -3 -0 -0 -4 -3 -2 -3 5 3 2 -3 -2 1
3 -1 -1 -2 -2 -2 2 -2 -1 0 -5 -3 1 -2 1 1 -0 -1 -8 1 -2 6 -6 -5 -9 -1 -2 3 29 19 26 3 7 3 -1 1 0 0 -2 2 -2 -7 -5 6 6 0 -3 -1 5
0 0 -1 -1 -2 1 2 -2 -3 -6 -3 3 2 0 2 4 -3 -2 0 2 -2 3 0 -3 18 25 -2 -2 18 8 -1 1 1 -4 -1 -3 1 0 -1 -0 -1 -5 -5 0 10 8 -4 -2 3
-2 -2 -3 -1 -3 -0 -2 -2 1 0 0 3 -1 -4 2 -1 3 -3 1 -2 -5 -4 3 -1 -4 -3 -3 -10 -1 1 32 11 -2 11 -1 0 4 1 -1 2 -2 -2 -2 -9 11 13 -7 -5 0
1 -2 -2 -1 -1 2 -4 -3 1 -1 4 2 3 -2 2 2 0 4 4 3 -1 -3 1 4 9 -8 -7 -7 3 11 14 7 5 15 11 5 -0 3 -2 -2 -2 4 -1 -3 -1 7 -7 -0 0
1 -3 -2 -3 1 2 -5 -2 -1 1 3 3 -0 0 1 -1 1 3 -2 -2 -1 2 -0 -4 -5 22 9 34 13 12 5 8 -1 17 4 -1 2 4 -2 -0 -2 5 1 -2 -1 8 2 1 -3
-0 -2 -2 -3 -3 4 -6 -4 -0 1 0 0 1 -1 -1 5 -6 -2 -2 1 -2 1 -4 0 2 4 4 9 31 18 15 13 7 8 -5 -1 3 -2 1 -1 -1 3 4 -3 -1 5 -2 4 2
1 -1 -2 -1 3 -6 -2 -2 -3 2 1 1 4 -4 -1 4 3 -0 1 -1 2 0 5 -0 -1 -4 4 2 -5 2 -3 0 15 1 -1 0 3 0 2 -1 2 2 -3 -0 0 1 -0 -0 7
-3 -0 -1 -1 3 -4 2 -1 -1 -1 -0 2 -2 1 1 2 4 6 -0 -2 2 3 -1 -2 -1 -3 -2 -9 -3 -6 -4 -4 -0 0 3 1 -2 2 0 1 2 -1 1 -2 1 -1 -1 8 -1
-3 -0 0 -3 -2 -1 1 -1 0 -3 -0 1 -1 3 -4 -1 1 2 2 -2 -4 -0 1 -1 -5 -7 20 5 -5 0 2 5 3 3 4 -1 1 1 5 -0 1 -0 0 2 -0 3 1 -3 6
0 1 1 -2 -3 -3 -3 -0 -2 -2 -1 2 -1 0 -4 3 1 -3 -1 0 -3 0 1 -0 -3 -3 2 2 2 2 -1 3 3 4 4 6 2 4 0 -0 4 -1 1 2 4 2 2 2 0
3 -3 0 -1 -3 -3 -1 -1 -8 -3 -1 -2 -1 -1 -1 -5 3 3 -0 1 -0 -2 7 -0 4 2 6 7 -0 -2 5 -1 2 3 3 5 -3 2 -1 1 0 -2 -3 -0 2 1 -3 6 7
0 0 -1 2 -2 -2 -5 -2 -7 1 -4 -4 -5 -0 -1 -1 2 -2 2 -1 1 5 -3 3 1 1 -0 4 2 -0 -1 3 4 4 4 -1 1 1 -2 5 -10 -2 -1 -0 0 -1 1 -3 1
-0 3 0 -0 2 0 1 -11 -3 -1 1 -3 -8 -4 -1 2 2 -2 -2 -1 2 6 4 -2 1 5 0 -3 3 3 7 2 1 -0 -6 -6 1 -1 -3 -3 -7 -3 1 5 6 2 -3 -9 -2
-3 -0 7 2 2 -2 -1 -5 -0 -1 4 -1 -5 -6 -6 -1 2 0 -4 -1 2 1 2 -2 -1 1 5 6 -3 -0 -1 -4 -1 1 0 -1 0 3 -0 -2 5 3 1 -1 0 -2 -2 -1 0
1 -1 5 2 -4 -0 0 -2 -3 -4 -1 3 -1 -4 -2 0 0 0 -1 1 -2 -1 -3 -5 -1 1 -0 -3 1 2 2 2 0 1 -1 -0 -2 2 -4 -1 -2 8 -2 6 -2 -5 1 2 1
1 3 0 1 -4 2 -4 -3 -0 -3 -3 -0 0 -3 -2 -0 -0 1 1 -3 -1 -1 -0 1 -1 -1 2 -2 -0 -3 -4 -2 1 -3 -3 1 6 -3 -1 -2 4 5 -3 2 -2 -4 -3 -0 -2
19 -4 -1 -0 0 -1 1 -3 5 1 -7 1 -1 2 -7 -1 1 -0 -2 -3 -1 -1 -2 1 3 1 2 2 4 -2 2 -3 1 -1 3 -2 -0 -3 1 -1 4 -2 6 1 -2 1 2 -1 -1
9 -2 -3 0 0 -8 6 -4 8 1 -0 -9 -0 6 -4 -4 -0 -0 -4 -2 -0 3 1 -3 -3 0 -1 2 -0 -0 2 -2 -3 -4 -1 -3 2 -1 6 0 3 -1 6 2 1 5 3 -0 -1
-4 3 -1 -8 -6 3 3 -9 5 1 -3 -0 -3 -1 -2 -8 -5 -1 -1 -4 -3 -3 -4 -0 1 -0 -2 -3 -2 -3 -1 3 -2 7 0 2 -4 3 -4 2 -0 6 1 5 -0 0 5 0 -2
3 5 2 -4 2 7 -1 -6 6 -1 -4 -1 -2 2 1 3 -8 -4 -1 -1 -3 -4 -2 -1 -1 2 4 2 -1 2 2 -3 -1 -4 -6 -2 -6 4 1 1 6 9 7 16 5 17 16 12 -1
16 -11 11 -1 0 -2 -2 1 2 3 -1 -1 -4 -6 2 3 1 -9 -0 2 -1 0 1 -1 -4 -6 -3 -1 -2 -1 -3 -3 -6 -4 2 3 4 -0 4 1 1 1 39 8 11 11 19 5 -0
-5 5 0 -7 -7 -4 -1 0 2 5 2 -3 -1 -1 -3 7 1 -6 -9 2 -2 -2 -0 6 4 3 -2 -1 2 1 -1 -0 8 -1 3 1 -1 -2 -0 4 -2 1 39 19 14 11 5 2 -3
-0 -5 -7 -2 -7 -9 -0 -1 7 3 -2 -1 -0 -1 -2 -7 7 -1 -1 -12 1 -0 2 4 1 0 3 5 13 10 5 8 8 3 3 4 -2 -0 4 4 9 -5 27 17 2 -5 -7 1 2
-6 -1 -3 -12 4 -10 -8 -0 1 4 2 -2 -0 -1 0 -4 -6 8 -1 -3 -8 2 0 2 2 0 2 11 0 8 13 1 5 35 10 12 24 56 19 -0 119 -2 1 1 -4 -3 -1 -1 5
Height
5806 5803 5799 5796 5793 5785 5781 5779 5778 5775 5774 5774 5774 5774 5773 5773 5772 5772 5774 5773 5774 5776 5778 5782 5784 5783 5783 5790 5791 5796 5798 5802 5806 5812 5816 5820 5824 5825 5828 5830 5832 5833 5833 5834 5834 5832 5830 5830 5831
5803 5799 5794 5790 5787 5781 5779 5777 5775 5772 5772 5773 5772 5770 5771 5772 5773 5771 5769 5769 5770 5772 5775 5776 5779 5780 5780 5782 5785 5788 5796 5799 5803 5808 5813 5818 5819 5821 5824 5826 5828 5830 5831 5832 5831 5830 5828 5828 5830
5798 5795 5790 5785 5781 5779 5775 5774 5772 5771 5770 5770 5770 5768 5768 5769 5768 5768 5766 5767 5769 5769 5769 5772 5774 5774 5774 5776 5782 5782 5787 5796 5798 5805 5809 5815 5815 5819 5821 5823 5825 5826 5828 5829 5828 5826 5825 5826 5827
5793 5792 5787 5782 5777 5776 5774 5773 5771 5769 5769 5767 5765 5765 5764 5763 5763 5764 5762 5763 5763 5766 5766 5767 5767 5767 5770 5772 5773 5778 5783 5787 5794 5801 5805 5809 5813 5816 5818 5820 5822 5823 5825 5824 5823 5822 5823 5823 5823
5791 5788 5783 5778 5776 5774 5772 5772 5768 5766 5763 5762 5761 5760 5758 5756 5757 5757 5756 5755 5757 5761 5763 5763 5764 5762 5765 5763 5766 5774 5781 5782 5792 5796 5802 5806 5809 5812 5816 5818 5818 5819 5821 5821 5819 5818 5819 5820 5821
5788 5784 5779 5774 5774 5772 5770 5769 5766 5762 5760 5759 5757 5755 5752 5748 5749 5749 5748 5748 5750 5752 5755 5756 5756 5759 5763 5762 5761 5766 5777 5781 5786 5793 5799 5803 5806 5809 5812 5815 5815 5815 5816 5817 5816 5816 5815 5816 5817
5785 5780 5776 5772 5771 5769 5769 5766 5764 5761 5759 5757 5754 5751 5748 5745 5738 5741 5741 5742 5744 5744 5747 5749 5749 5751 5755 5758 5760 5764 5772 5780 5785 5790 5795 5799 5804 5806 5809 5810 5810 5811 5811 5813 5812 5812 5811 5811 5814
5781 5777 5772 5770 5770 5768 5766 5764 5762 5760 5758 5754 5749 5746 5743 5741 5737 5736 5734 5735 5739 5740 5742 5744 5744 5746 5750 5751 5757 5763 5770 5776 5780 5788 5792 5795 5800 5802 5804 5806 5805 5807 5807 5808 5809 5807 5806 5807 5810
5777 5773 5770 5769 5769 5766 5765 5763 5761 5760 5755 5750 5747 5743 5738 5735 5734 5733 5728 5730 5736 5738 5742 5740 5743 5744 5746 5750 5754 5760 5765 5772 5777 5783 5786 5793 5796 5798 5799 5800 5801 5803 5803 5803 5806 5804 5802 5803 5807
5774 5770 5766 5767 5768 5767 5764 5760 5759 5758 5754 5748 5745 5740 5735 5731 5729 5731 5728 5730 5734 5735 5738 5741 5741 5739 5739 5745 5750 5756 5760 5769 5773 5777 5784 5789 5792 5795 5797 5796 5794 5797 5799 5797 5799 5801 5799 5800 5802
5770 5767 5764 5766 5765 5765 5761 5758 5757 5756 5753 5746 5743 5738 5735 5732 5729 5730 5729 5730 5730 5732 5734 5737 5736 5735 5736 5741 5744 5753 5757 5764 5770 5775 5781 5784 5788 5792 5791 5789 5789 5792 5794 5792 5792 5794 5794 5796 5800
5768 5765 5762 5764 5763 5761 5760 5758 5756 5754 5750 5746 5743 5738 5733 5731 5731 5731 5731 5732 5731 5731 5732 5734 5735 5737 5738 5743 5748 5754 5757 5762 5766 5774 5778 5782 5785 5785 5786 5785 5785 5787 5789 5788 5788 5790 5791 5794 5797
5765 5764 5761 5761 5762 5757 5757 5757 5755 5753 5749 5745 5741 5737 5732 5730 5729 5729 5730 5731 5731 5732 5733 5736 5738 5737 5739 5742 5748 5752 5756 5761 5767 5771 5775 5778 5780 5779 5780 5781 5780 5780 5780 5781 5783 5786 5788 5791 5795
5763 5762 5760 5757 5759 5756 5756 5755 5753 5752 5749 5746 5740 5736 5733 5731 5730 5730 5730 5730 5730 5732 5734 5735 5737 5738 5741 5745 5750 5752 5754 5758 5763 5768 5771 5774 5774 5773 5775 5773 5774 5773 5776 5777 5779 5782 5785 5789 5792
5760 5758 5757 5754 5753 5753 5754 5752 5751 5750 5748 5747 5740 5736 5734 5731 5728 5727 5726 5727 5728 5729 5732 5735 5735 5739 5738 5744 5748 5748 5751 5756 5760 5764 5766 5768 5766 5769 5766 5768 5768 5770 5771 5773 5776 5779 5783 5787 5790
5757 5755 5753 5751 5750 5752 5752 5751 5748 5748 5748 5746 5741 5737 5735 5732 5728 5726 5724 5723 5723 5725 5728 5732 5734 5736 5737 5741 5744 5745 5748 5752 5756 5759 5760 5763 5763 5760 5762 5763 5764 5766 5769 5772 5774 5778 5782 5785 5788
5754 5752 5751 5748 5748 5747 5748 5747 5746 5747 5747 5745 5741 5738 5735 5734 5730 5727 5727 5725 5721 5721 5722 5726 5729 5733 5734 5738 5739 5743 5745 5746 5750 5754 5755 5756 5756 5757 5758 5760 5762 5763 5766 5771 5773 5777 5779 5781 5783
5750 5749 5748 5746 5746 5743 5741 5743 5743 5745 5745 5743 5741 5739 5736 5736 5732 5730 5729 5731 5726 5723 5723 5723 5726 5730 5731 5733 5735 5739 5741 5743 5746 5748 5750 5752 5751 5753 5756 5758 5761 5762 5767 5771 5773 5776 5777 5778 5780
5748 5746 5746 5745 5743 5741 5740 5736 5741 5743 5742 5741 5738 5738 5736 5735 5735 5732 5732 5731 5731 5728 5726 5728 5728 5728 5730 5732 5733 5735 5737 5740 5741 5744 5747 5744 5748 5752 5755 5758 5759 5762 5764 5767 5771 5773 5773 5775 5776
5742 5743 5744 5743 5738 5736 5737 5734 5738 5740 5740 5738 5736 5735 5736 5735 5735 5733 5732 5732 5732 5732 5729 5729 5730 5731 5730 5733 5734 5734 5735 5738 5740 5741 5742 5743 5748 5752 5755 5756 5758 5759 5762 5763 5766 5768 5768 5770 5772
5737 5738 5739 5739 5735 5733 5731 5730 5733 5736 5737 5737 5736 5734 5734 5734 5734 5734 5732 5731 5732 5732 5732 5731 5731 5734 5733 5732 5732 5733 5734 5738 5738 5740 5743 5745 5748 5751 5751 5753 5754 5757 5760 5761 5763 5764 5765 5766 5766
5734 5734 5732 5732 5731 5730 5728 5726 5729 5729 5733 5734 5734 5733 5733 5734 5734 5734 5733 5731 5732 5731 5732 5732 5734 5735 5735 5733 5733 5733 5736 5739 5738 5740 5743 5744 5745 5746 5745 5748 5749 5754 5754 5758 5759 5760 5759 5759 5760
5733 5726 5726 5726 5725 5726 5724 5722 5725 5724 5729 5731 5732 5734 5733 5733 5733 5734 5733 5731 5732 5733 5733 5733 5734 5736 5735 5734 5736 5737 5736 5739 5740 5739 5741 5743 5744 5742 5744 5745 5748 5752 5751 5754 5755 5754 5753 5752 5752
5725 5721 5721 5720 5720 5720 5721 5719 5720 5720 5723 5725 5728 5731 5731 5731 5731 5732 5733 5731 5732 5732 5734 5732 5733 5733 5734 5734 5734 5736 5739 5739 5737 5737 5738 5738 5740 5738 5743 5745 5747 5744 5748 5749 5748 5747 5747 5746 5745
5717 5718 5716 5715 5716 5717 5717 5714 5715 5717 5719 5721 5724 5728 5729 5728 5728 5728 5729 5730 5730 5730 5731 5732 5733 5733 5733 5734 5735 5736 5735 5735 5734 5734 5735 5735 5736 5738 5739 5741 5740 5741 5741 5740 5741 5741 5739 5739 5738
5711 5712 5710 5710 5711 5714 5711 5708 5712 5712 5714 5717 5719 5723 5725 5726 5725 5724 5725 5726 5727 5727 5728 5729 5729 5729 5730 5730 5731 5731 5732 5731 5729 5731 5730 5732 5731 5733 5734 5733 5735 5736 5734 5734 5732 5731 5730 5731 5730
5704 5701 5710 5704 5703 5703 5707 5706 5708 5709 5709 5713 5716 5718 5720 5724 5722 5721 5721 5722 5722 5723 5724 5724 5724 5724 5726 5727 5727 5727 5727 5728 5728 5725 5726 5724 5726 5727 5727 5727 5727 5726 5725 5726 5726 5726 5724 5724 5721
5692 5699 5699 5697 5695 5697 5700 5702 5705 5707 5706 5706 5712 5714 5716 5719 5719 5719 5717 5717 5718 5718 5719 5720 5721 5721 5721 5721 5723 5723 5721 5720 5719 5719 5719 5719 5718 5718 5719 5719 5719 5717 5711 5718 5717 5716 5715 5715 5713
5686 5688 5690 5692 5690 5689 5693 5696 5702 5702 5701 5701 5704 5707 5710 5713 5715 5715 5715 5713 5713 5714 5715 5715 5716 5716 5716 5716 5715 5714 5712 5712 5711 5711 5710 5709 5710 5711 5710 5710 5709 5710 5706 5707 5708 5708 5706 5706 5705
5676 5678 5682 5682 5684 5685 5686 5689 5696 5697 5696 5696 5697 5700 5704 5705 5708 5709 5710 5710 5709 5710 5711 5711 5710 5710 5710 5710 5708 5707 5704 5702 5704 5704 5702 5703 5701 5702 5698 5698 5692 5702 5701 5700 5698 5699 5700 5698 5695